User: anonymous   Login
Location: Caltech
(34.1382°N, 118.1253°W)
Time: 03:07:37
(UTC-07:00)
Language:

Cosmos 1606 - Orbit

View from above orbital plane
View from above orbital plane
View from above satellite
View from above satellite

Ground track
Ground track

The orbit data is extracted from the following two-line orbital elements,

1 15369U 84111A   16177.84838988  .00000860  00000-0  44268-4 0  9999
2 15369  82.5287 112.9161 0019762  56.0222 304.2884 15.14893272726502
Epoch (UTC): 25 June 2016 20:21:40
Eccentricity: 0.0019762
inclination: 82.5287°
perigee height: 507 km
apogee height: 535 km
right ascension of ascending node: 112.9161°
argument of perigee: 56.0222°
revolutions per day: 15.14893272
mean anomaly at epoch: 304.2884°
orbit number at epoch: 72650

The dashed part of the orbit path shows where the satellite is in the earth's shadow,  

DLR